Weather History for KMIA - September, 2013

Change the Weather History Date:

Friday, September 13, 2013

  Actual Average Record
Temperature  
Mean Temperature 84 °F 83 °F  
Max Temperature 91 °F 90 °F 93 °F (1947)
Min Temperature 76 °F 77 °F 69 °F (1923)
Degree Days  
Heating Degree Days 0 0  
Month to date heating degree days 0 0  
Since 1 July heating degree days 0 0  
Cooling Degree Days 19 18  
Month to date cooling degree days 243 236  
Year to date cooling degree days 3380 3311  
Growing Degree Days 33 (Base 50)    
Moisture  
Dew Point 73 °F    
Average Humidity 72    
Maximum Humidity 94    
Minimum Humidity 49    
Precipitation  
Precipitation 0.00 in 0.32 in 3.08 in (1970)
Month to date precipitation 3.76 4.16  
Year to date precipitation 46.44 44.56  
Snow  
Snow 0.00 in - - ()
Month to date snowfall 0.0  
Since 1 July snowfall 0.0  
Since 1 September snowfall 0.0  
Snow Depth 0.00 in    
Sea Level Pressure  
Sea Level Pressure 29.88 in    
Wind  
Wind Speed 4 mph (SE)    
Max Wind Speed 12 mph    
Max Gust Speed 18 mph    
Visibility 10 miles    
Events      
T = Trace of Precipitation, MM = Missing Value Source: NWS Daily Summary

Daily Weather History Graph

Daily Weather History Graph

Search for Another Location

Airport or City:

Trip Planner

Search our weather history database for the weather conditions in past years. The results will help you decide how hot, cold, wet, or windy it might be!

Date:

Astronomy

Sep. 13, 2013 Rise Set
Actual Time 7:06 AM EDT 7:27 PM EDT
Civil Twilight 6:43 AM EDT 7:50 PM EDT
Nautical Twilight 6:16 AM EDT 8:17 PM EDT
Astronomical Twilight 5:49 AM EDT 8:44 PM EDT
Moon 2:51 PM EDT (9/13) 12:59 AM EDT (9/13)
Length of Visible Light 13h 07m
Length of Day
12h 20m
First Quarter, 61% of the Moon is Illuminated
Sep 13
First Quarter
Sep 19
Full
Sep 26
Last Quarter
Oct 4
New
Oct 11
First Quarter

Hourly Weather History & Observations

Time (EDT) Temp. Heat Index Dew Point Humidity Pressure Visibility Wind Dir Wind Speed Gust Speed Precip Events Conditions
12:53 AM 80.1 °F 84.5 °F 73.9 °F 81% 29.90 in 9.0 mi Calm Calm - N/A   Overcast
1:53 AM 79.0 °F - 73.9 °F 84% 29.89 in 9.0 mi Calm Calm - N/A   Overcast
2:53 AM 79.0 °F - 75.0 °F 88% 29.88 in 9.0 mi NNW 3.5 mph - N/A   Overcast
3:53 AM 79.0 °F - 75.9 °F 90% 29.88 in 9.0 mi North 3.5 mph - N/A   Mostly Cloudy
4:53 AM 78.1 °F - 75.9 °F 93% 29.88 in 10.0 mi Calm Calm - N/A   Mostly Cloudy
5:53 AM 78.1 °F - 75.0 °F 90% 29.88 in 9.0 mi Calm Calm - N/A   Scattered Clouds
6:53 AM 77.0 °F - 75.0 °F 94% 29.89 in 10.0 mi Calm Calm - N/A   Scattered Clouds
7:53 AM 79.0 °F - 75.9 °F 90% 29.90 in 10.0 mi Calm Calm - N/A   Scattered Clouds
8:53 AM 82.9 °F 90.8 °F 75.9 °F 79% 29.91 in 7.0 mi Calm Calm - N/A   Scattered Clouds
9:53 AM 84.9 °F 91.4 °F 73.0 °F 67% 29.91 in 10.0 mi Calm Calm - N/A   Scattered Clouds
10:53 AM 87.1 °F 92.0 °F 70.0 °F 57% 29.91 in 10.0 mi SSW 3.5 mph - N/A   Scattered Clouds
11:53 AM 89.1 °F 94.1 °F 70.0 °F 53% 29.91 in 10.0 mi Calm Calm - N/A   Scattered Clouds
12:53 PM 91.0 °F 96.6 °F 70.0 °F 50% 29.89 in 10.0 mi Variable 6.9 mph - N/A   Scattered Clouds
1:53 PM 88.0 °F 94.7 °F 72.0 °F 59% 29.87 in 10.0 mi South 4.6 mph - N/A   Scattered Clouds
2:53 PM 90.0 °F 97.9 °F 73.0 °F 57% 29.85 in 10.0 mi ESE 8.1 mph - N/A   Scattered Clouds
3:53 PM 88.0 °F 93.8 °F 71.1 °F 57% 29.83 in 10.0 mi SSE 5.8 mph - N/A   Scattered Clouds
4:53 PM 88.0 °F 93.8 °F 71.1 °F 57% 29.83 in 10.0 mi SE 10.4 mph - N/A   Scattered Clouds
5:53 PM 87.1 °F 93.6 °F 72.0 °F 61% 29.83 in 10.0 mi SE 8.1 mph - N/A   Scattered Clouds
6:53 PM 84.0 °F 90.2 °F 73.0 °F 69% 29.83 in 10.0 mi SE 6.9 mph - N/A   Scattered Clouds
7:53 PM 82.9 °F 88.8 °F 73.0 °F 72% 29.84 in 10.0 mi ESE 5.8 mph - N/A   Scattered Clouds
8:53 PM 82.9 °F 89.4 °F 73.9 °F 74% 29.86 in 10.0 mi ESE 4.6 mph - N/A   Scattered Clouds
9:53 PM 82.9 °F 89.4 °F 73.9 °F 74% 29.88 in 10.0 mi SE 4.6 mph - N/A   Scattered Clouds
10:53 PM 82.9 °F 89.4 °F 73.9 °F 74% 29.88 in 10.0 mi SSE 5.8 mph - N/A   Scattered Clouds
11:53 PM 82.0 °F 87.9 °F 73.9 °F 76% 29.88 in 10.0 mi SE 4.6 mph - N/A   Partly Cloudy